Location: Dötzum
(52.0808°N, 9.8063°E)
Time: 05:58:06
(UTC+00:00)

CZ-4 R/B - Pass Details

Date: 27 May 2022
Orbit: 680 x 752 km, 98.5° (Epoch: 26 June)

Event Time Altitude Azimuth Distance (km) Brightness Sun altitude
Rises 01:02:41 0° 16° (NNE) 3,067 9.0 -13.2°
Reaches altitude 10° 01:04:57 10° 18° (NNE) 2,141 7.8 -13.0°
Maximum altitude 01:09:37 73° 103° (ESE) 716 3.9 -12.7°
Enters shadow 01:13:16 16° 188° (S) 1,725 5.3 -12.4°
